Weather History for Kingman, AZ

Change the Weather History Date:

Wednesday, June 12, 2013

  Actual Average Record
Temperature  
Mean Temperature 83 °F 77 °F  
Max Temperature 100 °F 92 °F 107 °F (1918)
Min Temperature 66 °F 61 °F 42 °F (1919)
Degree Days  
Heating Degree Days 0 0  
Month to date heating degree days 0 0  
Since 1 June heating degree days 0 0  
Since 1 July heating degree days 2899 3100  
Cooling Degree Days 18 12  
Month to date cooling degree days 202 125  
Year to date cooling degree days 424 323  
Since 1 June cooling degree days 202 125  
Growing Degree Days 33 (Base 50)    
Moisture  
Dew Point 24 °F    
Average Humidity 12    
Maximum Humidity 17    
Minimum Humidity 6    
Precipitation  
Precipitation 0.00 in 0.00 in 0.12 in (1953)
Month to date precipitation 0.00 0.01  
Year to date precipitation 1.18 3.47  
Sea Level Pressure  
Sea Level Pressure 29.76 in    
Wind  
Wind Speed 13 mph (SSW)    
Max Wind Speed 28 mph    
Max Gust Speed 35 mph    
Visibility 10 miles    
Events      
T = Trace of Precipitation, MM = Missing Value Source: NWS Daily Summary

Daily Weather History Graph

Daily Weather History Graph

Search for Another Location

Airport:

Trip Planner

Search our weather history database for the weather conditions in past years. The results will help you decide how hot, cold, wet, or windy it might be!

Date:

Astronomy

Jun. 12, 2013 Rise Set
Actual Time 5:20 AM MST 7:51 PM MST
Civil Twilight 4:50 AM MST 8:20 PM MST
Nautical Twilight 4:13 AM MST 8:57 PM MST
Astronomical Twilight 3:33 AM MST 9:38 PM MST
Moon 8:57 AM MST (6/12) 10:36 PM MST (6/12)
Length of Visible Light 15h 30m
Length of Day
14h 30m
Waxing Crescent, 15% of the Moon is Illuminated
Jun 12
Waxing Crescent
Jun 16
First Quarter
Jun 23
Full
Jun 29
Last Quarter
Jul 8
New

Hourly Weather History & Observations

Time (MST) Temp. Dew Point Humidity Pressure Visibility Wind Dir Wind Speed Gust Speed Precip Events Conditions
12:51 AM 77.0 °F 25.0 °F 15% 29.77 in 10.0 mi SE 10.4 mph - N/A   Clear
1:51 AM 75.9 °F 26.1 °F 16% 29.77 in 10.0 mi Variable 4.6 mph - N/A   Clear
2:51 AM 73.9 °F 25.0 °F 16% 29.76 in 10.0 mi SE 5.8 mph - N/A   Clear
3:51 AM 73.9 °F 21.9 °F 14% 29.76 in 10.0 mi SSE 10.4 mph - N/A   Clear
4:51 AM 68.0 °F 21.0 °F 17% 29.78 in 10.0 mi SSE 5.8 mph - N/A   Clear
5:51 AM 71.1 °F 21.0 °F 15% 29.79 in 10.0 mi SSE 6.9 mph - N/A   Clear
6:51 AM 82.0 °F 25.0 °F 12% 29.78 in 10.0 mi SE 11.5 mph - N/A   Clear
7:51 AM 84.0 °F 24.1 °F 11% 29.78 in 10.0 mi WSW 3.5 mph - N/A   Clear
8:51 AM 90.0 °F 19.9 °F 8% 29.79 in 10.0 mi SW 4.6 mph - N/A   Clear
9:51 AM 93.0 °F 21.0 °F 7% 29.80 in 10.0 mi WSW 15.0 mph - N/A   Unknown
10:51 AM 95.0 °F 19.0 °F 6% 29.80 in 10.0 mi SW 17.3 mph 20.7 mph N/A   Clear
11:51 AM 98.1 °F 21.0 °F 6% 29.78 in 10.0 mi SW 24.2 mph 29.9 mph N/A   Clear
12:51 PM 98.1 °F 19.0 °F 6% 29.77 in 10.0 mi SW 21.9 mph 33.4 mph N/A   Clear
1:51 PM 97.0 °F 21.9 °F 7% 29.77 in 10.0 mi South 21.9 mph 31.1 mph N/A   Clear
2:51 PM 97.0 °F 23.0 °F 7% 29.76 in 10.0 mi SSW 15.0 mph - N/A   Clear
3:51 PM 95.0 °F 24.1 °F 8% 29.76 in 10.0 mi SW 17.3 mph 25.3 mph N/A   Clear
4:51 PM 95.0 °F 23.0 °F 8% 29.75 in 10.0 mi SW 18.4 mph - N/A   Clear
5:51 PM 95.0 °F 23.0 °F 8% 29.73 in 10.0 mi SSW 9.2 mph - N/A   Clear
6:51 PM 93.0 °F 25.0 °F 9% 29.72 in 10.0 mi SSW 17.3 mph - N/A   Clear
7:51 PM 89.1 °F 25.0 °F 10% 29.73 in 10.0 mi SSW 13.8 mph - N/A   Clear
8:51 PM 87.1 °F 28.0 °F 12% 29.72 in 10.0 mi SSW 13.8 mph - N/A   Clear
9:51 PM 82.9 °F 30.9 °F 15% 29.73 in 10.0 mi SSW 12.7 mph - N/A   Clear
10:51 PM 82.0 °F 32.0 °F 16% 29.73 in 10.0 mi SSW 11.5 mph - N/A   Clear
11:51 PM 82.9 °F 34.0 °F 17% 29.71 in 10.0 mi South 13.8 mph - N/A   Clear